SCP
0 0 0 0 0 0 0 0 0 0 0 0 0 0 0 0 0 0 0 0 0 0
0 0 0 0 0 0 0 0 0 0 0 0 0 0 0 0 0 0 0 0 0 0
0 0 0 0 0 0 0 0 0 0 0 0 0 0 0 0 0 0 0 0 0 0
0 0 0 0 0 0 0 0 0 0 0 0 0 0 0 0 0 0 0 0 0 0
0 0 0 0 0 0 0 0 0 0 0 0 0 0 0 0 0 0 0 0 0 0
0 0 0 0 0 0 0 0 0 0 0 0 0 0 0 0 0 0 0 0 0 0
0 0 0 0 0 0 0 0 0 0 0 0 0 0 0 0 0 0 0 0 0 0
0 0 0 0 0 0 0 0 0 0 0 0 0 0 0 0 0 0 0 0 0 0
0 0 0 0 0 0 0 0 0 0 0 0 0 0 0 0 0 0 0 0 0 0
0 -0 0 0 -0 -0 -0 -0 0 0 0 0 0 0 0 0 0 0 0 0 0 0
-0 0 0 0 0 -0 -0 -0 0 0 0 0 0 0 0 0 0 0 0 0 0 0
-0 -0 0 0 0 0 0 0 0 0 0 0 0 0 0 0 0 0 0 0 0 0
-0 -0 -0 -0 0 0 0 0 0 0 0 0 0 0 0 0 0 0 0 0 0 0
-0 0 0 0 0 0 0 0 0 0 0 0 0 0 0 0 0 0 0 0 0 0
Wind_Speed_500mb
35 41 48 58 66 74 84 91 92 94 95 99 100 101 103 111 116 116 120 124 125 125
33 39 44 50 58 68 71 81 90 95 92 94 96 98 101 107 112 114 116 120 122 126
34 38 43 50 57 62 69 71 74 84 92 96 100 100 101 107 110 113 118 116 117 114
31 31 34 40 46 52 57 62 71 75 82 91 98 104 107 111 111 113 117 118 118 118
33 35 38 41 45 49 57 59 61 66 74 80 88 95 104 111 114 115 117 116 119 120
34 37 40 45 49 51 54 58 63 67 73 77 82 86 95 103 108 111 117 116 113 118
40 43 46 50 53 55 55 57 60 63 68 75 77 82 85 94 104 108 112 119 118 117
49 50 52 55 57 56 57 59 62 65 67 67 73 78 81 85 92 100 106 110 120 116
61 62 61 62 65 67 66 64 64 65 66 70 72 73 76 77 86 94 98 102 111 120
68 70 70 70 70 72 75 76 75 74 73 74 75 75 75 75 79 88 98 105 105 111
73 77 77 79 81 81 79 79 79 81 81 83 83 81 79 77 78 85 94 102 107 109
80 84 82 84 90 95 100 101 99 90 85 84 86 86 85 79 78 82 91 95 100 102
87 88 86 87 89 96 103 107 109 112 108 99 93 83 86 86 80 83 89 95 99 96
95 93 89 91 94 99 105 111 115 118 117 111 105 101 86 85 81 84 87 97 101 100
Wind_Direction_500mb
264 266 265 270 277 280 279 280 281 278 275 272 272 271 270 267 266 265 263 262 260 258
280 271 271 267 265 266 273 277 279 278 274 272 272 271 270 268 266 266 265 264 263 259
297 291 285 282 276 275 274 271 273 274 272 272 273 272 271 271 271 266 264 264 262 254
313 307 299 297 291 286 284 281 277 274 276 274 271 269 270 269 269 268 266 265 262 261
314 310 311 315 313 300 287 283 281 277 275 274 272 271 269 269 268 268 266 263 256 259
328 325 318 315 318 320 314 297 288 286 281 278 276 274 270 269 267 261 264 266 262 258
329 326 326 324 321 319 320 318 305 295 292 285 281 276 272 270 270 268 265 263 263 264
328 325 322 320 321 322 322 318 317 311 298 292 287 283 278 272 271 271 269 267 267 266
326 324 321 318 317 318 319 320 318 313 313 302 293 290 287 279 273 273 273 272 268 270
328 324 324 322 320 318 317 316 316 317 316 309 305 297 290 283 275 270 268 270 270 269
327 323 320 317 318 317 316 315 314 311 312 312 308 309 302 291 277 270 267 266 270 272
323 320 315 311 311 313 314 315 315 313 312 307 303 307 308 302 286 273 268 265 266 269
317 314 310 306 304 304 305 306 308 307 309 309 306 303 305 307 294 280 270 269 264 265
310 309 306 303 302 303 304 304 304 303 304 304 306 308 305 304 298 282 273 269 266 268
Wind_Speed_850mb
35 41 48 58 66 74 84 91 92 94 95 99 100 101 103 111 116 116 120 124 125 125
33 39 44 50 58 68 71 81 90 95 92 94 96 98 101 107 112 114 116 120 122 126
34 38 43 50 57 62 69 71 74 84 92 96 100 100 101 107 110 113 118 116 117 114
31 31 34 40 46 52 57 62 71 75 82 91 98 104 107 111 111 113 117 118 118 118
33 35 38 41 45 49 57 59 61 66 74 80 88 95 104 111 114 115 117 116 119 120
34 37 40 45 49 51 54 58 63 67 73 77 82 86 95 103 108 111 117 116 113 118
40 43 46 50 53 55 55 57 60 63 68 75 77 82 85 94 104 108 112 119 118 117
49 50 52 55 57 56 57 59 62 65 67 67 73 78 81 85 92 100 106 110 120 116
61 62 61 62 65 67 66 64 64 65 66 70 72 73 76 77 86 94 98 102 111 120
68 70 70 70 70 72 75 76 75 74 73 74 75 75 75 75 79 88 98 105 105 111
73 77 77 79 81 81 79 79 79 81 81 83 83 81 79 77 78 85 94 102 107 109
80 84 82 84 90 95 100 101 99 90 85 84 86 86 85 79 78 82 91 95 100 102
87 88 86 87 89 96 103 107 109 112 108 99 93 83 86 86 80 83 89 95 99 96
95 93 89 91 94 99 105 111 115 118 117 111 105 101 86 85 81 84 87 97 101 100
Wind_Direction_850mb
264 266 265 270 277 280 279 280 281 278 275 272 272 271 270 267 266 265 263 262 260 258
280 271 271 267 265 266 273 277 279 278 274 272 272 271 270 268 266 266 265 264 263 259
297 291 285 282 276 275 274 271 273 274 272 272 273 272 271 271 271 266 264 264 262 254
313 307 299 297 291 286 284 281 277 274 276 274 271 269 270 269 269 268 266 265 262 261
314 310 311 315 313 300 287 283 281 277 275 274 272 271 269 269 268 268 266 263 256 259
328 325 318 315 318 320 314 297 288 286 281 278 276 274 270 269 267 261 264 266 262 258
329 326 326 324 321 319 320 318 305 295 292 285 281 276 272 270 270 268 265 263 263 264
328 325 322 320 321 322 322 318 317 311 298 292 287 283 278 272 271 271 269 267 267 266
326 324 321 318 317 318 319 320 318 313 313 302 293 290 287 279 273 273 273 272 268 270
328 324 324 322 320 318 317 316 316 317 316 309 305 297 290 283 275 270 268 270 270 269
327 323 320 317 318 317 316 315 314 311 312 312 308 309 302 291 277 270 267 266 270 272
323 320 315 311 311 313 314 315 315 313 312 307 303 307 308 302 286 273 268 265 266 269
317 314 310 306 304 304 305 306 308 307 309 309 306 303 305 307 294 280 270 269 264 265
310 309 306 303 302 303 304 304 304 303 304 304 306 308 305 304 298 282 273 269 266 268